Flag for U.S.A. Weather past 2 weeks in Simi Valley, California, U.S.A.

Now
68 °F

Sunny.


Feels Like: 68 °F
Forecast: 51 / 79 °F
Wind: 5 mph from East

Location: Van Nuys Airport


UV Index: 7 (High)

Visibility: 10 mi


Pressure: 29.89 "Hg

Humidity: 31%

Dew point: 36 °F

Location of Simi ValleyLocation

Historic Weather in Simi Valley

°F

Simi Valley temperature yesterday

Maximum temperature yesterday: 71 °F (at 2:51 PM)
Minimum temperature yesterday: 56 °F (at 4:51 AM)
Average temperature yesterday: 63 °F

Past Weeks' High & Low Weather Summary

 TemperatureHumidityPressure
High90 °F (Apr 9, 3:51 PM)88% (Apr 16, 2:03 AM)30.04 "Hg (Apr 16, 2:03 AM)
Low51 °F (Apr 10, 4:51 AM)5% (Apr 9, 12:51 PM)29.75 "Hg (Apr 16, 4:51 PM)
Average66 °F50%29.92 "Hg
* Reported Apr 8 6:51 PM — Apr 23 6:51 PM, Simi Valley, Weather by CustomWeather, © 2014

Note: Actual official high and low records may vary slightly from our data, if they occured in-between our weather recording intervals... More about our weather records

Advertising

Historic Weather Conditions — Data for Previous 24 hours

 ConditionsComfort  
Time TempWeatherWind HumidityBarometerVisibility
6:51 PM
Apr 23
70 °FSunny.5 mph30%29.87 "Hg10 mi
5:51 PM71 °FSunny.10 mph28%29.87 "Hg10 mi
4:51 PM73 °FSunny.9 mph26%29.87 "Hg10 mi
3:51 PM74 °FSunny.9 mph26%29.87 "Hg10 mi
2:51 PM75 °FSunny.6 mph24%29.88 "Hg10 mi
1:51 PM72 °FSunny.15 mph31%29.90 "Hg10 mi
12:51 PM74 °FSunny.12 mph25%29.90 "Hg10 mi
11:51 AM72 °FSunny.No wind17%29.93 "Hg10 mi
10:51 AM70 °FPartly sunny.9 mph19%29.94 "Hg10 mi
9:51 AM66 °FPartly sunny.12 mph22%29.93 "Hg10 mi
8:51 AM62 °FPartly sunny.7 mph26%29.94 "Hg10 mi
7:51 AM59 °FSunny.17 mph32%29.93 "Hg10 mi
6:51 AM58 °FClear.8 mph32%29.92 "Hg10 mi
5:51 AM58 °FClear.14 mph33%29.90 "Hg10 mi
4:51 AM58 °FClear.13 mph36%29.89 "Hg10 mi
3:51 AM59 °FClear.10 mph32%29.90 "Hg10 mi
2:51 AM61 °FClear.15 mph29%29.90 "Hg10 mi
1:51 AM61 °FClear.15 mph27%29.90 "Hg10 mi
12:51 AM62 °FClear.15 mph24%29.90 "Hg10 mi
11:51 PM
Apr 22
63 °FClear.20 mph21%29.90 "Hg10 mi
10:51 PM64 °FClear.15 mph21%29.90 "Hg10 mi
9:51 PM65 °FClear.6 mph20%29.90 "Hg10 mi
8:51 PM62 °FClear.5 mph58%29.89 "Hg10 mi
Weather by CustomWeather, © 2014

See weather overview